EHI
0 0 0 0 0 0 0 0 1 3 7 10 13 16 19 24 30 36 43 51 62 74 84 86 81 74 71 70 72 76 79 80 80 76 71 65 57 53 52 50 43 35 28 23
0 0 0 0 0 0 1 1 1 3 6 10 14 18 24 30 35 39 44 52 63 75 85 88 83 76 74 74 75 76 77 78 78 75 67 60 53 50 49 46 41 35 29 24
0 0 0 0 1 1 2 3 3 5 6 10 14 21 32 40 43 44 49 58 66 75 85 88 83 79 78 78 77 76 76 77 77 73 64 55 49 46 44 42 38 35 30 25
0 0 0 1 2 3 3 4 5 6 7 10 14 21 33 43 45 48 55 64 68 70 76 80 79 79 79 79 78 79 79 78 77 74 65 54 46 43 42 38 34 33 30 27
0 0 1 2 3 3 4 5 6 7 9 11 13 19 30 39 44 50 59 65 65 63 65 70 73 77 80 81 81 82 80 78 76 75 67 55 46 42 39 35 32 30 28 27
0 0 1 3 4 3 4 7 9 11 12 15 17 22 31 39 42 49 57 61 59 58 62 68 72 76 79 80 80 80 77 75 75 75 66 54 46 41 36 32 29 27 26 25
0 1 2 4 5 8 13 18 19 17 17 20 25 31 36 38 40 46 52 54 55 58 65 71 73 74 75 74 74 74 72 70 71 69 62 52 46 41 36 31 28 26 25 24
1 3 7 12 14 19 27 31 27 22 20 22 27 34 37 37 39 44 47 50 54 60 66 69 70 70 70 70 70 69 68 65 63 60 56 50 45 42 40 34 28 26 25 25
4 6 14 19 22 26 30 30 27 23 20 20 25 32 37 40 43 45 46 48 52 57 62 66 67 66 67 69 69 67 64 60 55 54 54 50 45 44 42 35 29 27 26 25
8 10 14 17 19 20 21 20 19 19 19 20 24 29 35 41 44 45 46 47 49 53 58 64 65 64 65 68 68 65 59 54 51 51 52 50 46 43 39 33 29 27 26 25
10 11 12 12 12 13 15 16 16 18 21 22 23 26 33 39 41 43 43 44 47 51 56 59 61 61 61 63 64 62 56 50 47 46 46 47 44 38 32 27 24 23 22 22
10 12 14 13 11 12 15 17 18 21 24 26 26 27 30 34 37 39 38 39 42 45 49 51 52 54 55 56 58 58 53 48 43 40 40 40 38 32 25 18 13 12 12 13
11 13 15 13 11 12 16 19 20 22 25 28 30 30 29 30 33 33 32 32 33 35 40 43 44 46 49 50 51 51 48 42 36 34 34 32 30 27 21 13 9 7 5 4
12 13 13 12 11 13 17 20 21 22 24 27 30 29 27 26 27 27 28 27 27 29 33 37 39 41 42 42 43 42 39 33 30 28 28 27 25 22 18 15 13 11 6 1
10 12 13 11 12 14 17 19 20 22 22 24 26 25 23 22 22 23 24 24 25 27 29 33 35 37 35 33 34 34 30 27 24 23 23 24 22 18 15 13 13 12 8 4
6 9 10 10 11 13 15 16 18 19 19 20 20 19 18 18 20 20 20 22 25 25 26 29 33 34 31 28 27 26 24 21 18 18 20 20 18 16 13 10 10 10 8 6
3 5 6 6 8 11 13 14 15 17 17 16 14 13 13 13 14 15 15 18 22 23 22 25 30 33 29 26 23 21 20 17 14 14 17 17 16 14 12 9 8 9 8 6
3 4 4 4 7 10 12 13 14 15 15 13 11 10 11 10 10 10 10 13 16 17 17 18 22 24 23 22 20 19 18 17 15 15 16 16 14 12 9 7 6 6 6 5
3 4 5 5 6 8 10 11 11 12 13 12 10 9 9 9 9 10 10 10 11 11 12 12 12 12 14 15 15 16 15 14 15 15 15 14 12 9 6 4 3 3 4 4
3 4 5 5 6 7 8 7 7 7 8 9 8 8 8 8 9 10 10 10 9 8 8 8 7 8 10 10 11 10 10 10 12 13 12 9 8 7 6 4 2 2 3 4
4 5 6 7 6 6 6 5 4 5 5 5 5 5 5 6 6 7 9 8 6 6 6 6 7 9 10 10 9 9 8 8 9 9 8 6 6 7 6 5 4 3 4 4
5 7 8 7 6 6 6 5 4 4 4 3 3 3 3 4 4 5 6 5 3 3 4 4 6 8 9 9 9 9 8 7 7 7 6 6 6 6 6 6 5 5 5 5
6 6 6 5 4 4 4 4 3 3 3 3 3 3 3 3 3 3 2 2 1 1 1 2 4 5 7 9 9 8 7 6 5 5 6 7 8 8 7 7 6 6 6 6
5 5 4 3 3 3 3 3 3 3 3 3 3 3 3 3 2 2 1 1 1 0 1 2 2 2 4 6 7 6 6 5 4 4 6 7 8 7 7 7 7 6 6 6
4 4 3 3 3 3 3 3 3 4 4 3 3 3 2 1 1 2 2 2 1 0 1 2 2 1 1 3 4 4 4 4 4 4 4 5 4 4 5 5 5 6 6 6
3 3 3 3 3 3 2 1 2 4 4 3 2 1 1 0 1 2 2 1 1 1 1 2 2 1 0 2 3 3 3 3 4 3 3 3 2 2 3 3 4 4 4 4
3 3 3 3 3 2 1 0 1 3 4 2 1 0 0 1 1 1 1 1 2 2 2 3 2 1 1 2 3 3 3 3 3 3 3 3 2 2 3 3 3 3 3 3
Wind_Speed
16 15 13 14 15 16 16 14 11 10 9 6 5 3 4 4 3 5 6 7 6 5 6 7 7 7 7 7 7 7 8 8 8 7 6 6 5 5 4 3 4 3 3 2
16 17 16 15 15 15 15 13 13 12 7 1 4 4 5 4 1 2 4 5 6 6 6 7 7 8 8 8 8 8 8 8 8 8 7 6 6 5 5 4 4 3 3 3
14 16 16 18 15 15 12 11 11 10 5 2 3 3 4 4 2 2 1 3 3 4 5 6 6 6 6 7 8 8 8 7 8 8 8 7 7 6 5 4 4 4 4 3
12 14 18 12 9 10 10 9 8 6 3 2 4 4 4 4 3 2 2 2 2 2 4 5 6 7 7 7 7 8 8 8 8 8 8 7 6 6 5 5 4 4 4 4
11 14 16 11 10 10 9 7 5 4 2 2 3 4 5 4 3 2 2 2 1 0 3 4 5 6 7 7 7 8 7 7 7 7 7 7 7 6 5 5 5 4 4 4
11 14 13 7 5 4 6 6 2 2 1 2 3 3 3 5 4 3 3 3 2 1 0 2 4 5 6 6 7 7 7 6 6 6 7 7 7 6 5 5 5 5 5 4
14 13 9 6 5 5 8 2 2 1 2 2 3 3 4 5 4 3 3 3 2 1 1 2 3 4 5 5 5 5 5 6 6 6 6 6 6 6 6 5 5 5 5 4
12 13 7 4 3 1 3 4 3 3 3 3 3 4 5 5 4 3 4 4 3 2 2 2 3 3 4 4 4 5 6 6 6 6 6 6 6 6 6 6 6 5 5 5
4 2 3 5 5 4 3 4 4 3 2 2 2 3 3 4 4 3 3 3 3 3 2 2 3 3 4 3 5 6 6 6 6 6 5 6 7 7 6 6 6 6 5 5
2 1 1 2 3 2 2 2 2 2 1 1 1 2 3 3 3 3 3 3 3 2 2 2 2 3 3 4 4 5 5 5 5 6 6 6 5 6 6 6 6 5 5 5
5 4 2 1 1 2 3 3 3 3 2 1 1 1 1 2 2 2 2 2 2 2 1 1 1 2 3 3 4 5 4 4 4 5 5 5 4 3 5 4 4 5 5 5
3 1 2 1 2 3 3 3 3 3 3 3 2 2 1 1 2 2 1 2 2 2 2 2 0 2 2 3 4 5 5 4 4 4 4 4 4 3 2 2 4 5 4 4
3 2 2 3 4 4 3 4 3 3 3 3 2 1 2 1 1 1 1 2 2 2 2 2 1 1 2 3 4 4 4 4 4 4 4 4 5 4 4 3 2 3 4 4
3 3 3 4 5 4 5 4 2 2 2 3 2 2 2 2 2 1 1 1 2 2 2 2 1 1 1 2 3 4 4 4 4 4 4 4 4 4 4 5 5 4 4 5
3 3 4 5 5 4 4 3 2 2 2 2 2 2 2 2 2 2 2 2 2 2 2 2 1 0 1 2 3 3 4 4 4 3 4 4 4 4 4 5 5 4 4 4
5 5 5 4 4 5 5 3 2 2 2 2 3 2 2 2 2 3 3 2 2 3 2 2 2 2 2 2 3 3 4 5 4 4 4 4 4 4 4 4 5 5 5 5
6 6 6 5 5 5 4 3 3 3 2 2 2 2 2 2 2 2 3 3 2 2 2 2 2 2 2 3 4 4 4 4 6 5 5 5 4 4 4 4 5 4 4 5
6 7 6 5 5 4 4 4 3 3 3 2 2 2 3 3 3 3 3 3 2 2 2 2 1 1 2 3 3 3 3 3 4 4 4 4 4 4 4 5 5 5 4 5
6 6 5 4 4 3 3 4 4 3 2 2 3 3 2 2 2 2 2 2 2 3 2 2 1 3 3 2 2 2 3 4 4 3 3 3 4 4 4 4 4 4 4 4
5 5 4 2 2 3 3 3 3 2 2 2 2 3 2 2 3 2 2 2 2 2 3 3 2 2 1 0 1 2 3 4 3 3 3 4 4 4 3 3 3 3 3 3
5 4 2 1 2 2 2 2 3 2 2 1 2 2 2 2 3 2 2 2 1 2 3 3 1 1 1 1 3 3 3 2 2 3 3 3 3 3 2 2 2 1 2 3
2 1 1 1 1 2 2 2 2 1 1 1 2 1 1 2 2 1 1 1 1 2 2 1 1 2 2 2 2 2 2 2 1 2 2 2 2 2 2 2 2 3 3 3
1 1 1 1 1 1 2 2 1 0 0 0 1 1 1 2 1 1 1 1 1 2 1 2 3 4 3 1 1 2 2 2 1 1 1 1 2 2 2 2 2 3 2 2
1 1 1 1 1 0 1 1 0 0 1 0 0 1 2 1 1 1 0 1 1 1 1 2 2 2 2 1 1 1 1 1 1 1 1 1 1 1 1 1 1 1 1 1
1 1 1 1 1 0 0 0 0 1 1 1 0 1 1 1 1 1 2 2 2 1 1 2 1 1 1 2 2 2 1 2 2 2 1 1 1 1 1 1 0 1 0 1
1 1 1 0 0 0 0 1 1 1 1 1 0 1 1 2 2 2 1 2 2 1 2 2 1 1 1 2 2 2 2 2 2 2 2 2 2 2 2 1 1 1 2 2
1 2 1 1 1 1 1 1 1 1 2 1 1 1 1 2 2 2 2 2 2 2 2 2 2 2 2 2 3 3 3 3 3 3 3 3 3 3 3 3 3 3 3 3
Wind_Direction
264 261 251 243 238 238 244 249 247 245 243 211 155 137 112 105 120 131 138 142 139 143 143 147 149 154 163 162 161 163 166 169 164 162 158 154 154 151 146 145 141 133 114 99
259 262 259 257 246 241 239 244 245 249 252 191 131 129 117 115 123 114 131 143 145 147 148 155 162 170 168 167 163 161 168 171 163 163 162 162 160 155 152 147 138 133 128 119
256 255 258 252 248 243 239 241 242 246 248 171 137 112 105 114 119 112 99 119 133 147 155 163 170 168 169 169 163 162 167 170 167 166 166 166 167 160 157 156 149 143 138 122
253 254 249 252 258 251 245 246 246 246 236 186 142 125 94 84 83 72 76 66 93 151 161 170 175 175 173 173 169 168 170 174 171 169 164 161 162 162 161 158 156 153 146 132
250 247 245 244 245 243 241 241 257 257 250 220 183 144 106 82 81 71 60 63 44 225 188 175 176 174 169 172 172 172 173 174 169 165 162 164 167 165 161 162 163 162 153 147
246 250 249 250 252 267 259 233 247 253 273 287 282 229 104 70 57 47 46 56 42 7 191 162 165 163 168 175 176 178 172 165 157 162 166 168 165 165 164 165 168 168 163 160
242 248 252 270 258 235 241 225 49 65 60 17 27 35 67 69 60 40 40 40 35 21 45 101 126 150 165 180 182 169 153 153 160 167 169 168 163 169 169 171 171 173 166 166
236 245 244 324 269 245 71 59 54 53 58 48 46 67 72 70 54 39 39 30 28 52 67 88 114 147 166 175 163 150 154 161 165 170 179 170 166 172 173 174 178 179 176 179
242 233 64 41 57 62 63 61 42 34 32 33 57 72 63 58 46 34 38 35 27 44 73 105 125 146 167 163 155 158 162 167 168 171 175 169 173 177 179 184 191 190 186 188
252 197 58 56 52 27 34 34 4 338 4 47 30 48 53 55 41 29 30 33 31 38 47 58 109 140 154 158 163 165 169 168 165 171 178 177 181 184 189 193 197 196 192 189
227 231 236 254 347 338 2 348 332 329 334 312 323 358 68 81 65 34 20 23 16 11 13 42 87 125 148 156 160 165 167 169 174 183 182 178 179 190 192 196 201 198 199 194
245 272 283 318 335 319 322 328 346 335 333 329 318 315 310 68 78 56 19 21 6 349 342 343 66 151 156 154 159 165 168 173 185 190 185 181 178 180 164 192 192 183 185 198
315 325 309 311 310 313 321 309 307 311 311 313 332 346 338 11 63 50 9 358 345 336 340 331 275 184 161 151 166 178 183 184 199 199 195 191 190 192 192 189 181 190 201 204
352 351 314 303 303 311 299 293 304 316 320 317 346 358 359 2 355 357 339 329 321 317 322 321 296 199 165 166 182 190 197 196 200 203 204 206 205 204 204 198 195 203 206 201
286 278 276 285 290 292 288 274 265 276 308 325 332 329 337 342 341 336 330 319 314 305 305 307 297 259 185 198 206 207 211 210 205 211 211 212 212 212 211 209 206 199 183 174
282 281 279 273 276 274 270 266 273 295 304 310 310 314 322 327 330 324 315 308 290 287 295 300 281 253 233 222 217 221 218 211 208 216 220 221 221 221 217 212 212 209 201 179
275 277 277 275 274 274 278 279 278 285 302 299 291 292 294 294 295 296 299 297 285 283 282 275 258 235 225 224 233 236 228 210 208 225 225 222 224 226 227 225 224 219 208 180
268 275 280 279 284 281 280 285 281 280 288 290 279 269 262 267 277 285 287 294 286 279 280 280 269 239 235 233 236 245 242 231 220 225 230 228 230 227 230 233 229 219 205 184
263 268 272 273 270 274 282 287 284 292 311 302 288 277 281 288 287 290 289 290 294 288 302 314 272 250 252 238 243 235 241 242 235 227 235 227 230 236 238 236 234 222 209 186
274 276 277 282 281 275 282 288 287 293 294 309 304 289 284 298 300 299 302 303 311 324 320 319 272 262 268 331 275 248 245 244 236 220 227 240 240 240 241 243 239 228 218 204
276 280 282 300 314 311 311 303 294 286 285 317 302 286 287 300 298 296 288 296 355 356 315 300 293 325 356 328 265 253 244 235 238 226 228 239 240 237 239 249 246 226 230 228
290 308 322 348 325 308 301 279 268 253 263 267 274 294 312 297 296 310 338 336 345 355 309 305 13 38 17 317 278 278 277 273 260 250 229 234 234 230 233 233 232 232 231 234
344 344 340 349 333 314 307 292 278 265 294 301 317 322 297 293 295 302 334 3 13 7 349 19 37 44 10 308 302 302 311 311 296 284 277 254 244 236 239 249 258 254 241 234
32 51 31 45 71 151 290 288 284 73 66 96 275 297 291 292 336 11 69 95 69 20 41 67 70 35 339 317 317 314 322 320 313 304 306 292 270 260 247 253 266 273 273 264
61 94 108 76 87 118 131 98 122 127 134 145 204 279 318 23 35 43 57 64 57 30 80 106 90 322 327 358 352 351 3 9 0 351 347 326 303 303 19 33 357 317 289 292
55 51 81 100 108 114 99 94 100 100 103 103 94 23 37 65 76 68 69 77 59 42 48 70 64 37 24 15 8 7 11 27 18 3 19 22 16 22 29 24 28 29 31 33
104 86 90 127 113 74 69 66 76 81 88 88 83 67 63 75 76 65 56 66 77 61 49 44 40 33 32 29 25 20 18 19 18 26 28 27 23 25 31 37 39 38 38 44